Reno - Stead, NV

8:13 PM PDT on April 22, 2018 (GMT -0700)
Reno - Stead

Weather History for KRTS - November, 2012

Change the Weather History Date:

Wednesday, November 28, 2012

  Actual Average (KRNO) Record (KRNO)
Temperature  
Mean Temperature 34 °F -  
Max Temperature 48 °F 49 °F 69 °F (1949)
Min Temperature 19 °F 24 °F 6 °F (1919)
Degree Days  
Heating Degree Days 32    
Moisture  
Dew Point 26 °F    
Average Humidity 68    
Maximum Humidity 87    
Minimum Humidity 43    
Precipitation  
Precipitation 0.21 in - - ()
Sea Level Pressure  
Sea Level Pressure 30.00 in    
Wind  
Wind Speed 5 mph ()    
Max Wind Speed 31 mph    
Max Gust Speed 43 mph    
Visibility 9.2 miles    
Events Rain    
Averages and records for this station are not official NWS values.
T = Trace of Precipitation, MM = Missing Value Source: Averaged Metar Reports

Daily Weather History Graph

Daily Weather History Graph

Search for Another Location

Airport or City:

Astronomy

Nov. 28, 2012 Rise Set
Actual Time 6:58 AM PST 4:36 PM PST
Civil Twilight 6:29 AM PST 5:06 PM PST
Nautical Twilight 5:55 AM PST 5:39 PM PST
Astronomical Twilight 5:23 AM PST 6:11 PM PST
Moon 4:55 PM PST (11/28) 7:00 AM PST (11/28)
Length of Visible Light 10h 37m
Length of Day
9h 37m
Full, 100% of the Moon is Illuminated
Nov 28
Full
Dec 6
Last Quarter
Dec 13
New
Dec 19
First Quarter
Dec 28
Full

Hourly Weather History & Observations

Time (PST) Temp. Windchill Dew Point Humidity Pressure Visibility Wind Dir Wind Speed Gust Speed Precip Events Conditions
12:15 AM 28.4 °F - 15.8 °F 59% 30.11 in 10.0 mi Calm Calm - N/A   Clear
12:35 AM 26.6 °F - 15.8 °F 64% 30.10 in 10.0 mi Calm Calm - N/A   Clear
12:55 AM 30.2 °F - 17.6 °F 60% 30.10 in 10.0 mi Calm Calm - N/A   Clear
1:15 AM 30.2 °F 26.7 °F 19.4 °F 64% 30.09 in 10.0 mi North 3.5 mph - N/A   Clear
1:35 AM 23.0 °F 18.4 °F 14.0 °F 68% 30.09 in 10.0 mi West 3.5 mph - N/A   Clear
1:55 AM 23.0 °F - 14.0 °F 68% 30.09 in 10.0 mi Calm Calm - N/A   Clear
2:15 AM 26.6 °F 20.0 °F 17.6 °F 69% 30.08 in 10.0 mi East 5.8 mph - N/A   Clear
2:35 AM 24.8 °F 20.5 °F 17.6 °F 74% 30.07 in 10.0 mi West 3.5 mph - N/A   Clear
2:55 AM 26.6 °F - 17.6 °F 69% 30.06 in 10.0 mi Calm Calm - N/A   Clear
3:15 AM 21.2 °F - 12.2 °F 68% 30.05 in 10.0 mi Calm Calm - N/A   Clear
3:35 AM 23.0 °F 17.0 °F 14.0 °F 68% 30.05 in 10.0 mi NNW 4.6 mph - N/A   Clear
3:55 AM 24.8 °F - 15.8 °F 69% 30.04 in 10.0 mi Calm Calm - N/A   Clear
4:15 AM 24.8 °F - 15.8 °F 69% 30.03 in 10.0 mi Calm Calm - N/A   Clear
4:35 AM 19.4 °F 12.8 °F 12.2 °F 74% 30.03 in 10.0 mi WSW 4.6 mph - N/A   Clear
4:55 AM 23.0 °F - 15.8 °F 74% 30.02 in 10.0 mi Calm Calm - N/A   Clear
5:15 AM 26.6 °F - 17.6 °F 69% 30.02 in 10.0 mi Calm Calm - N/A   Clear
5:35 AM 23.0 °F 17.0 °F 15.8 °F 74% 30.02 in 10.0 mi NNW 4.6 mph - N/A   Clear
5:55 AM 24.8 °F 20.5 °F 17.6 °F 74% 30.00 in 10.0 mi North 3.5 mph - N/A   Clear
6:15 AM 24.8 °F 20.5 °F 15.8 °F 69% 30.00 in 10.0 mi WSW 3.5 mph - N/A   Clear
6:35 AM 23.0 °F 15.8 °F 14.0 °F 68% 30.00 in 10.0 mi North 5.8 mph - N/A   Clear
6:55 AM 26.6 °F - 17.6 °F 69% 30.00 in 10.0 mi Calm Calm - N/A   Partly Cloudy
7:15 AM 32.0 °F 27.5 °F 19.4 °F 60% 29.99 in 10.0 mi WSW 4.6 mph - N/A   Scattered Clouds
7:35 AM 24.8 °F 20.5 °F 15.8 °F 69% 29.98 in 10.0 mi WNW 3.5 mph - N/A   Scattered Clouds
7:55 AM 26.6 °F - 17.6 °F 69% 29.98 in 10.0 mi Calm Calm - N/A   Overcast
8:15 AM 28.4 °F 24.6 °F 19.4 °F 69% 29.99 in 10.0 mi North 3.5 mph - N/A   Overcast
8:35 AM 33.8 °F 29.6 °F 21.2 °F 60% 29.97 in 10.0 mi North 4.6 mph - N/A   Overcast
8:55 AM 35.6 °F - 19.4 °F 52% 29.98 in 10.0 mi Calm Calm - N/A   Overcast
9:15 AM 37.4 °F 34.9 °F 21.2 °F 52% 29.97 in 10.0 mi NNW 3.5 mph - N/A   Overcast
9:35 AM 39.2 °F - 23.0 °F 52% 29.96 in 10.0 mi Calm Calm - N/A   Overcast
9:55 AM 37.4 °F 33.8 °F 23.0 °F 56% 29.98 in 10.0 mi SW 4.6 mph - N/A   Overcast
10:15 AM 39.2 °F - 23.0 °F 52% 29.98 in 10.0 mi Calm Calm - N/A   Overcast
10:55 AM 44.6 °F 42.2 °F 23.0 °F 43% 29.97 in 10.0 mi North 4.6 mph - N/A   Scattered Clouds
11:15 AM 44.6 °F 42.2 °F 23.0 °F 43% 29.96 in 10.0 mi SE 4.6 mph - N/A   Mostly Cloudy
11:35 AM 42.8 °F 41.1 °F 24.8 °F 49% 29.96 in 10.0 mi SE 3.5 mph - N/A   Mostly Cloudy
11:55 AM 42.8 °F 38.0 °F 30.2 °F 61% 29.95 in 4.0 mi South 8.1 mph - N/A Rain Light Rain
12:15 PM 44.6 °F 35.3 °F 35.6 °F 71% 29.90 in 9.0 mi South 26.5 mph 34.5 mph N/A Rain Light Rain
12:35 PM 44.6 °F 35.3 °F 37.4 °F 76% 29.93 in 8.0 mi South 26.5 mph 41.4 mph 0.01 in Rain Light Rain
12:55 PM 42.8 °F 34.0 °F 37.4 °F 81% 29.90 in 5.0 mi SSE 20.7 mph 29.9 mph 0.04 in Rain Light Rain
1:15 PM 44.6 °F 35.5 °F 39.2 °F 81% 29.90 in 10.0 mi South 25.3 mph 33.4 mph N/A   Scattered Clouds
1:35 PM 42.8 °F 34.0 °F 37.4 °F 81% 29.89 in 5.0 mi SSE 20.7 mph 36.8 mph 0.01 in Rain Light Rain
1:55 PM 42.8 °F 35.8 °F 39.2 °F 87% 29.91 in 5.0 mi SSW 13.8 mph 33.4 mph 0.02 in Rain Light Rain
2:15 PM 44.6 °F 37.2 °F 37.4 °F 76% 29.94 in 7.0 mi SW 17.3 mph 42.6 mph 0.01 in   Mostly Cloudy
2:35 PM 39.2 °F 29.3 °F 35.6 °F 87% 29.98 in 2.5 mi WSW 20.7 mph 39.1 mph 0.06 in Rain Light Rain
2:55 PM 37.4 °F 26.9 °F 33.8 °F 87% 29.96 in 3.0 mi WSW 20.7 mph 29.9 mph 0.12 in   Scattered Clouds
3:15 PM 41.0 °F 29.7 °F 32.0 °F 70% 29.92 in 5.0 mi SW 31.1 mph 42.6 mph 0.02 in Rain Light Rain
3:35 PM 41.0 °F 31.6 °F 35.6 °F 81% 29.95 in 4.0 mi WSW 20.7 mph 31.1 mph 0.03 in Rain Light Rain
3:55 PM 39.2 °F 33.6 °F 35.6 °F 87% 29.95 in 9.0 mi WSW 8.1 mph 32.2 mph 0.03 in Rain Light Rain
4:35 PM 41.0 °F 34.7 °F 33.8 °F 76% 29.97 in 10.0 mi WNW 10.4 mph - N/A   Overcast
4:55 PM 39.2 °F 31.6 °F 33.8 °F 81% 29.99 in 10.0 mi West 12.7 mph 20.7 mph N/A   Overcast
5:15 PM 41.0 °F 33.5 °F 33.8 °F 76% 29.99 in 10.0 mi WNW 13.8 mph - N/A   Overcast
5:35 PM 41.0 °F 33.5 °F 32.0 °F 70% 29.98 in 10.0 mi WNW 13.8 mph - N/A   Mostly Cloudy
5:55 PM 41.0 °F 33.5 °F 32.0 °F 70% 29.99 in 10.0 mi WNW 13.8 mph - N/A   Scattered Clouds
6:15 PM 42.8 °F 33.5 °F 32.0 °F 66% 30.00 in 10.0 mi WSW 23.0 mph 36.8 mph N/A   Scattered Clouds
6:35 PM 42.8 °F 34.8 °F 32.0 °F 66% 30.00 in 10.0 mi SW 17.3 mph 25.3 mph N/A   Scattered Clouds
6:55 PM 42.8 °F 34.5 °F 30.2 °F 61% 30.00 in 10.0 mi WSW 18.4 mph 25.3 mph N/A   Partly Cloudy
7:15 PM 41.0 °F 32.5 °F 28.4 °F 61% 30.01 in 10.0 mi WSW 17.3 mph 21.9 mph N/A   Clear
7:35 PM 41.0 °F 38.0 °F 28.4 °F 61% 30.02 in 10.0 mi WSW 4.6 mph - N/A   Clear
7:55 PM 41.0 °F - 28.4 °F 61% 30.02 in 10.0 mi Calm Calm - N/A   Scattered Clouds
8:15 PM 42.8 °F 38.0 °F 32.0 °F 66% 30.03 in 10.0 mi WNW 8.1 mph - N/A   Overcast
8:35 PM 41.0 °F 35.2 °F 32.0 °F 70% 30.03 in 10.0 mi West 9.2 mph - N/A   Overcast
8:55 PM 41.0 °F 37.1 °F 33.8 °F 76% 30.02 in 10.0 mi West 5.8 mph - N/A   Overcast
9:15 PM 41.0 °F 36.4 °F 33.8 °F 76% 30.02 in 10.0 mi West 6.9 mph - N/A   Overcast
9:35 PM 42.8 °F - 33.8 °F 70% 30.02 in 10.0 mi Calm Calm - N/A   Overcast
10:15 PM 41.0 °F 35.8 °F 33.8 °F 76% 30.02 in 10.0 mi NE 8.1 mph - N/A   Overcast
10:35 PM 42.8 °F 39.3 °F 33.8 °F 70% 30.02 in 10.0 mi ENE 5.8 mph - N/A   Overcast
10:55 PM 48.2 °F - 32.0 °F 54% 30.02 in 10.0 mi SE 9.2 mph 34.5 mph N/A   Overcast
11:15 PM 48.2 °F - 32.0 °F 54% 30.02 in 10.0 mi East 8.1 mph 29.9 mph N/A   Overcast
11:35 PM 48.2 °F - 32.0 °F 54% 30.03 in 10.0 mi East 4.6 mph - N/A   Overcast
11:55 PM 48.2 °F - 32.0 °F 54% 30.03 in 10.0 mi SSW 10.4 mph - N/A   Overcast